📊 Raw Sensor Data
Showing records 51351 to 51375 of 85,147 total
| ID | Distance (ft) | Battery V | Battery A | Int Temp (°F) | Int Humid (%) | Ext Temp (°F) | Solar V | RSSI | SNR | Time Stamp |
|---|---|---|---|---|---|---|---|---|---|---|
| 33809 | 14.8 | 3.98 | -5 | 51 | 39 | 52 | 0.00 | -72 | 8 | 03/01/2025 11:30 PM |
| 33808 | 14.8 | 3.92 | -5 | 52 | 39 | 52 | 0.00 | -72 | 7 | 03/01/2025 11:15 PM |
| 33807 | 14.8 | 3.92 | -5 | 53 | 38 | 53 | 0.00 | -71 | 7 | 03/01/2025 11:00 PM |
| 33806 | 14.9 | 3.92 | -5 | 53 | 38 | 53 | 0.00 | -72 | 8 | 03/01/2025 10:45 PM |
| 33805 | 14.8 | 3.98 | -5 | 53 | 39 | 54 | 0.00 | -71 | 8 | 03/01/2025 10:30 PM |
| 33804 | 14.8 | 3.98 | -5 | 53 | 39 | 54 | 0.10 | -72 | 8 | 03/01/2025 10:15 PM |
| 33803 | 14.9 | 3.93 | -5 | 52 | 39 | 53 | 0.00 | -74 | 8 | 03/01/2025 10:00 PM |
| 33802 | 14.9 | 3.98 | -5 | 52 | 39 | 53 | 0.00 | -74 | 8 | 03/01/2025 09:45 PM |
| 33801 | 14.9 | 3.93 | -5 | 53 | 38 | 53 | 0.00 | -77 | 8 | 03/01/2025 09:30 PM |
| 33800 | 14.9 | 3.93 | -5 | 53 | 38 | 54 | 0.10 | -74 | 8 | 03/01/2025 09:15 PM |
| 33799 | 14.9 | 3.93 | -5 | 53 | 38 | 54 | 0.10 | -73 | 8 | 03/01/2025 09:00 PM |
| 33798 | 14.8 | 3.98 | -5 | 53 | 38 | 54 | 0.00 | -73 | 8 | 03/01/2025 08:45 PM |
| 33797 | 14.9 | 3.93 | -5 | 52 | 38 | 54 | 0.10 | -73 | 8 | 03/01/2025 08:30 PM |
| 33796 | 14.9 | 3.93 | -5 | 50 | 39 | 53 | 0.10 | -74 | 8 | 03/01/2025 08:15 PM |
| 33795 | 14.8 | 3.99 | -5 | 50 | 39 | 51 | 0.00 | -73 | 8 | 03/01/2025 08:00 PM |
| 33794 | 14.8 | 3.93 | -5 | 50 | 40 | 51 | 0.00 | -72 | 8 | 03/01/2025 07:45 PM |
| 33793 | -- | 3.93 | -5 | 50 | 40 | 51 | 0.00 | -72 | 8 | 03/01/2025 07:30 PM |
| 33792 | 14.8 | 3.99 | -5 | 50 | 40 | 51 | 0.00 | -73 | 8 | 03/01/2025 07:15 PM |
| 33791 | 14.8 | 3.93 | -5 | 51 | 40 | 52 | 0.00 | -73 | 7 | 03/01/2025 07:00 PM |
| 33790 | 14.8 | 3.93 | -5 | 51 | 40 | 53 | 0.10 | -72 | 8 | 03/01/2025 06:45 PM |
| 33789 | 14.8 | 3.99 | -5 | 52 | 41 | 52 | 0.00 | -73 | 8 | 03/01/2025 06:30 PM |
| 33788 | 14.8 | 3.94 | -5 | 53 | 40 | 54 | 0.40 | -72 | 8 | 03/01/2025 06:15 PM |
| 33787 | 14.8 | 3.93 | -9 | 54 | 41 | 54 | 3.30 | -73 | 8 | 03/01/2025 06:00 PM |
| 33786 | 14.8 | 4.02 | 6 | 55 | 41 | 55 | 4.50 | -72 | 8 | 03/01/2025 05:45 PM |
| 33785 | 14.8 | 4.03 | -7 | 56 | 41 | 56 | 4.50 | -74 | 7 | 03/01/2025 05:30 PM |